Weather History for KTIW - April, 2014

Change the Weather History Date:

Wednesday, April 30, 2014

  Actual Average Record
Temperature  
Mean Temperature 68 °F -  
Max Temperature 82 °F 58 °F 82 °F (2014)
Min Temperature 54 °F 43 °F 37 °F (2006)
Cooling Degree Days 2    
Growing Degree Days 18 (Base 50)    
Moisture  
Dew Point 39 °F    
Average Humidity 39    
Maximum Humidity 57    
Minimum Humidity 20    
Precipitation  
Precipitation 0.00 in - - ()
Sea Level Pressure  
Sea Level Pressure 30.28 in    
Wind  
Wind Speed 9 mph (North)    
Max Wind Speed 17 mph    
Max Gust Speed 23 mph    
Visibility 10 miles    
Events      
Averages and records for this station are not official NWS values.
T = Trace of Precipitation, MM = Missing Value Source: NWS Daily Summary

Daily Weather History Graph

Daily Weather History Graph

Search for Another Location

Airport or City:

Trip Planner

Search our weather history database for the weather conditions in past years. The results will help you decide how hot, cold, wet, or windy it might be!

Date:

Astronomy

Apr. 30, 2014 Rise Set
Actual Time 5:55 AM PDT 8:20 PM PDT
Civil Twilight 5:21 AM PDT 8:54 PM PDT
Nautical Twilight 4:39 AM PDT 9:37 PM PDT
Astronomical Twilight 3:50 AM PDT 10:26 PM PDT
Moon 6:58 AM PDT (4/30) 10:07 PM PDT (4/30)
Length of Visible Light 15h 32m
Length of Day
14h 24m
Waxing Crescent, 3% of the Moon is Illuminated
Apr 30
Waxing Crescent
May 6
First Quarter
May 14
Full
May 21
Last Quarter
May 28
New

Hourly Weather History & Observations

Time (PDT) Temp. Dew Point Humidity Pressure Visibility Wind Dir Wind Speed Gust Speed Precip Events Conditions
12:53 AM 59.0 °F 37.0 °F 44% 30.39 in 10.0 mi North 5.8 mph - N/A   Clear
1:53 AM 57.9 °F 37.9 °F 47% 30.38 in 10.0 mi North 8.1 mph - N/A   Clear
2:53 AM 54.0 °F 39.0 °F 57% 30.38 in 10.0 mi NNW 3.5 mph - N/A   Clear
3:53 AM 55.9 °F 37.9 °F 51% 30.37 in 10.0 mi North 6.9 mph - N/A   Clear
4:53 AM 55.9 °F 37.9 °F 51% 30.37 in 10.0 mi North 8.1 mph - N/A   Clear
5:53 AM 55.0 °F 37.9 °F 53% 30.36 in 10.0 mi North 8.1 mph - N/A   Clear
6:53 AM 54.0 °F 39.0 °F 57% 30.36 in 10.0 mi North 5.8 mph - N/A   Clear
7:53 AM 57.2 °F 41.0 °F 55% 30.37 in 10.0 mi NNW 8.1 mph - N/A   Clear
8:53 AM 61.0 °F 39.9 °F 46% 30.36 in 10.0 mi North 8.1 mph - N/A   Clear
9:53 AM 63.0 °F 39.0 °F 41% 30.35 in 10.0 mi North 9.2 mph - N/A   Clear
10:53 AM 64.9 °F 39.0 °F 39% 30.34 in 10.0 mi North 10.4 mph - N/A   Clear
11:53 AM 71.1 °F 39.9 °F 32% 30.32 in 10.0 mi North 8.1 mph - N/A   Clear
12:53 PM 73.9 °F 37.0 °F 26% 30.30 in 10.0 mi NNE 8.1 mph - N/A   Clear
1:53 PM 77.0 °F 41.0 °F 28% 30.28 in 10.0 mi North 10.4 mph - N/A   Clear
2:53 PM 79.0 °F 36.0 °F 21% 30.26 in 10.0 mi North 11.5 mph - N/A   Clear
3:53 PM 80.1 °F 37.9 °F 22% 30.23 in 10.0 mi North 11.5 mph - N/A   Clear
4:53 PM 81.0 °F 36.0 °F 20% 30.20 in 10.0 mi North 11.5 mph - N/A   Clear
5:53 PM 78.1 °F 39.0 °F 25% 30.18 in 10.0 mi North 13.8 mph - N/A   Clear
6:53 PM 75.0 °F 41.0 °F 29% 30.17 in 10.0 mi North 16.1 mph 23.0 mph N/A   Clear
7:53 PM 72.0 °F 43.0 °F 35% 30.15 in 10.0 mi North 16.1 mph - N/A   Clear
8:53 PM 69.1 °F 43.0 °F 39% 30.15 in 10.0 mi North 17.3 mph - N/A   Clear
9:53 PM 66.9 °F 43.0 °F 42% 30.15 in 10.0 mi North 12.7 mph - N/A   Clear
10:53 PM 66.0 °F 42.1 °F 42% 30.15 in 10.0 mi North 12.7 mph - N/A   Clear
11:53 PM 64.0 °F 42.1 °F 45% 30.14 in 10.0 mi North 16.1 mph - N/A   Clear